User: anonymous   Login
Location: Stull Observatory
(42.2506°N, 77.7903°W)
Time: 07:46:09
(UTC-04:00)
Language:

Abrixas rocket - Orbit

View from above orbital plane
View from above orbital plane
View from above satellite
View from above satellite

Ground track
Ground track

The orbit data is extracted from the following two-line orbital elements,

1 25723U 99022C   16177.46397771  .00005031  00000-0  99656-4 0  9995
2 25723  48.4180 261.8631 0010199 120.5699 301.7689 15.48737778951102
Epoch (UTC): 25 June 2016 11:08:07
Eccentricity: 0.0010199
inclination: 48.4180°
perigee height: 413 km
apogee height: 427 km
right ascension of ascending node: 261.8631°
argument of perigee: 120.5699°
revolutions per day: 15.48737778
mean anomaly at epoch: 301.7689°
orbit number at epoch: 95110

The dashed part of the orbit path shows where the satellite is in the earth's shadow,  

DLR